Springfield, MO

8:31 AM CDT on July 26, 2016 (GMT -0500)
Springfield-Branson Regional

Weather History for KSGF - July, 2013

Change the Weather History Date:

Tuesday, July 30, 2013

  Actual Average Record
Temperature  
Mean Temperature 77 °F 79 °F  
Max Temperature 83 °F 90 °F 108 °F (1986)
Min Temperature 70 °F 68 °F 50 °F (1971)
Degree Days  
Heating Degree Days 0 0  
Month to date heating degree days 0 0  
Since 1 June heating degree days 14 9  
Since 1 July heating degree days 0 0  
Cooling Degree Days 12 14  
Month to date cooling degree days 361 397  
Year to date cooling degree days 772 775  
Since 1 June cooling degree days 645 660  
Growing Degree Days 26 (Base 50)    
Moisture  
Dew Point 71 °F    
Average Humidity 87    
Maximum Humidity 100    
Minimum Humidity 74    
Precipitation  
Precipitation 2.26 in 0.10 in 2.52 in (1898)
Month to date precipitation 6.33 3.58  
Year to date precipitation 32.31 26.46  
Snow  
Snow 0.00 in - - ()
Month to date snowfall 0.0  
Since 1 June snowfall 0.0  
Since 1 July snowfall 0.0  
Snow Depth 0.00 in    
Sea Level Pressure  
Sea Level Pressure 30.03 in    
Wind  
Wind Speed 7 mph (South)    
Max Wind Speed 26 mph    
Max Gust Speed 32 mph    
Visibility 7 miles    
Events Rain , Thunderstorm    
T = Trace of Precipitation, MM = Missing Value Source: NWS Daily Summary

Daily Weather History Graph

Daily Weather History Graph

Search for Another Location

Airport or City:

Trip Planner

Search our weather history database for the weather conditions in past years. The results will help you decide how hot, cold, wet, or windy it might be!

Date:

Astronomy

Jul. 30, 2013 Rise Set
Actual Time 6:16 AM CDT 8:22 PM CDT
Civil Twilight 5:47 AM CDT 8:51 PM CDT
Nautical Twilight 5:12 AM CDT 9:26 PM CDT
Astronomical Twilight 4:34 AM CDT 10:04 PM CDT
Moon 12:34 AM CDT (7/30) 2:43 PM CDT (7/30)
Length of Visible Light 15h 03m
Length of Day
14h 05m
Last Quarter, 41% of the Moon is Illuminated
Jul 30
Last Quarter
Aug 6
New
Aug 14
First Quarter
Aug 20
Full
Aug 28
Last Quarter

Hourly Weather History & Observations

Time (CDT) Temp. Heat Index Dew Point Humidity Pressure Visibility Wind Dir Wind Speed Gust Speed Precip Events Conditions
12:10 AM 73.0 °F - 71.1 °F 93% 30.07 in 5.0 mi SSE 10.4 mph - 0.06 in Rain , Thunderstorm Thunderstorms and Rain
12:31 AM 73.0 °F - 71.1 °F 93% 30.07 in 4.0 mi SSE 12.7 mph - 0.14 in Rain Rain
12:41 AM 73.0 °F - 71.1 °F 93% 30.07 in 4.0 mi SSE 12.7 mph - 0.18 in Rain , Thunderstorm Heavy Thunderstorms and Rain
12:52 AM 73.0 °F - 70.0 °F 90% 30.04 in 4.0 mi SSE 10.4 mph - 0.22 in Rain , Thunderstorm Thunderstorms and Rain
1:08 AM 73.0 °F - 71.1 °F 93% 30.08 in 2.5 mi South 9.2 mph - 0.09 in Rain , Thunderstorm Heavy Thunderstorms and Rain
1:17 AM 72.0 °F - 71.1 °F 97% 30.08 in 1.5 mi SSE 11.5 mph - 0.26 in Rain , Thunderstorm Heavy Thunderstorms and Rain
1:25 AM 72.0 °F - 71.1 °F 97% 30.08 in 2.0 mi SSE 13.8 mph - 0.38 in Rain , Thunderstorm Heavy Thunderstorms and Rain
1:35 AM 72.0 °F - 71.1 °F 97% 30.07 in 1.5 mi SSE 15.0 mph - 0.54 in Rain , Thunderstorm Heavy Thunderstorms and Rain
1:44 AM 72.0 °F - 71.1 °F 97% 30.06 in 2.0 mi SE 18.4 mph 24.2 mph 0.72 in Rain , Thunderstorm Heavy Thunderstorms and Rain
1:49 AM 71.6 °F - 71.6 °F 100% 30.06 in 1.8 mi SSE 26.5 mph 32.2 mph 0.75 in Rain , Thunderstorm Heavy Thunderstorms and Rain
1:52 AM 72.0 °F - 71.1 °F 97% 30.03 in 1.2 mi SE 23.0 mph 32.2 mph 0.83 in Rain , Thunderstorm Heavy Thunderstorms and Rain
2:08 AM 72.0 °F - 71.1 °F 97% 30.05 in 3.0 mi ESE 15.0 mph - 0.45 in Rain , Thunderstorm Heavy Thunderstorms and Rain
2:13 AM 72.0 °F - 71.1 °F 97% 30.06 in 4.0 mi SE 12.7 mph - 0.48 in Rain , Thunderstorm Rain
2:34 AM 72.0 °F - 70.0 °F 93% 30.04 in 4.0 mi ESE 13.8 mph - 0.55 in Rain , Thunderstorm Heavy Thunderstorms and Rain
2:49 AM 71.6 °F - 69.8 °F 94% 30.02 in 5.0 mi East 19.6 mph 27.6 mph 0.64 in Rain , Thunderstorm Rain
2:52 AM 72.0 °F - 70.0 °F 93% 29.97 in 6.0 mi East 20.7 mph 27.6 mph 0.64 in Rain , Thunderstorm Light Rain
3:02 AM 72.0 °F - 70.0 °F 93% 30.05 in 1.8 mi SW 19.6 mph 31.1 mph 0.09 in Rain , Thunderstorm Heavy Rain
3:06 AM 71.1 °F - 69.1 °F 93% 30.05 in 1.2 mi SW 15.0 mph 31.1 mph 0.22 in Rain , Thunderstorm Heavy Thunderstorms and Rain
3:13 AM 70.0 °F - 69.1 °F 97% 30.05 in 2.0 mi SSW 17.3 mph - 0.33 in Rain , Thunderstorm Heavy Thunderstorms and Rain
3:26 AM 70.0 °F - 68.0 °F 93% 30.05 in 1.8 mi SSW 10.4 mph - 0.53 in Rain , Thunderstorm Heavy Thunderstorms and Rain
3:30 AM 70.0 °F - 68.0 °F 93% 30.05 in 2.0 mi SW 8.1 mph - 0.58 in Rain , Thunderstorm Heavy Rain
3:36 AM 70.0 °F - 68.0 °F 93% 30.04 in 3.0 mi SW 8.1 mph - 0.61 in Rain , Thunderstorm Rain
3:52 AM 70.0 °F - 68.0 °F 93% 30.01 in 6.0 mi South 5.8 mph - 0.66 in Rain , Thunderstorm Rain
4:03 AM 70.0 °F - 69.1 °F 97% 30.04 in 7.0 mi South 5.8 mph - 0.02 in Rain Rain
4:52 AM 70.0 °F - 69.1 °F 97% 29.99 in 8.0 mi SE 9.2 mph - 0.06 in Rain Light Rain
5:52 AM 72.0 °F - 70.0 °F 93% 30.00 in 7.0 mi South 10.4 mph - 0.06 in Rain Light Rain
6:52 AM 72.0 °F - 70.0 °F 93% 30.01 in 10.0 mi South 9.2 mph - 0.01 in   Overcast
7:52 AM 72.0 °F - 70.0 °F 93% 30.02 in 10.0 mi South 8.1 mph - 0.01 in Rain Light Rain
8:52 AM 72.0 °F - 70.0 °F 93% 30.02 in 8.0 mi South 10.4 mph - 0.00 in Rain Light Rain
9:36 AM 73.0 °F - 70.0 °F 90% 30.06 in 9.0 mi SSW 9.2 mph - 0.00 in Rain Light Rain
9:52 AM 73.0 °F - 71.1 °F 93% 30.02 in 7.0 mi SSW 6.9 mph - 0.02 in Rain Light Rain
10:11 AM 73.9 °F - 72.0 °F 93% 30.05 in 9.0 mi SSW 6.9 mph - 0.00 in Rain Light Rain
10:23 AM 73.9 °F - 71.1 °F 91% 30.05 in 10.0 mi South 6.9 mph - 0.00 in Rain Light Rain
10:52 AM 75.9 °F - 72.0 °F 87% 30.02 in 10.0 mi SSW 10.4 mph - 0.00 in   Mostly Cloudy
11:08 AM 75.9 °F - 71.1 °F 85% 30.06 in 10.0 mi SSW 10.4 mph - N/A   Overcast
11:52 AM 75.9 °F - 71.1 °F 85% 30.03 in 10.0 mi SW 12.7 mph - N/A   Overcast
12:11 PM 73.9 °F - 70.0 °F 87% 30.06 in 10.0 mi SW 11.5 mph - N/A   Overcast
12:22 PM 73.9 °F - 70.0 °F 87% 30.06 in 10.0 mi SW 10.4 mph - N/A   Overcast
12:32 PM 73.9 °F - 69.1 °F 85% 30.06 in 10.0 mi SSW 9.2 mph - N/A   Overcast
12:52 PM 75.0 °F - 70.0 °F 84% 30.02 in 10.0 mi SSW 9.2 mph - N/A   Overcast
1:52 PM 77.0 °F - 71.1 °F 82% 30.01 in 10.0 mi SW 6.9 mph - N/A   Overcast
2:52 PM 78.1 °F - 72.0 °F 81% 30.00 in 10.0 mi WSW 5.8 mph - N/A   Overcast
3:52 PM 78.1 °F - 73.0 °F 84% 29.99 in 10.0 mi Variable 3.5 mph - N/A   Overcast
4:52 PM 80.1 °F 84.2 °F 73.0 °F 79% 29.99 in 10.0 mi Calm Calm - N/A   Mostly Cloudy
5:52 PM 82.0 °F 87.4 °F 73.0 °F 74% 29.98 in 10.0 mi Calm Calm - N/A   Mostly Cloudy
6:52 PM 82.9 °F 89.4 °F 73.9 °F 74% 29.97 in 10.0 mi North 4.6 mph - N/A   Mostly Cloudy
7:52 PM 78.1 °F - 72.0 °F 81% 29.97 in 10.0 mi SSW 3.5 mph - 0.00 in   Overcast
8:52 PM 78.1 °F - 72.0 °F 81% 29.99 in 10.0 mi Calm Calm - N/A   Overcast
9:52 PM 77.0 °F - 73.0 °F 88% 30.00 in 10.0 mi NNW 4.6 mph - N/A   Overcast
10:52 PM 77.0 °F - 73.0 °F 88% 30.01 in 10.0 mi Calm Calm - N/A   Overcast
11:01 PM 75.9 °F - 73.0 °F 91% 30.06 in 10.0 mi Calm Calm - N/A   Overcast
11:52 PM 75.9 °F - 73.0 °F 91% 30.02 in 10.0 mi Calm Calm - N/A   Overcast